Bloomington, IN

10:50 AM EDT on July 21, 2017 (GMT -0400)
Monroe County

Weather History for KBMG - November, 2014

Change the Weather History Date:

Saturday, November 1, 2014

  Actual Average Record
Temperature  
Mean Temperature 36 °F 50 °F  
Max Temperature 45 °F 61 °F 82 °F (2016)
Min Temperature 26 °F 38 °F 26 °F (2014)
Degree Days  
Heating Degree Days 29 15  
Month to date heating degree days 29 15  
Since 1 July heating degree days 460 434  
Cooling Degree Days 0 0  
Month to date cooling degree days 0 0  
Year to date cooling degree days 904 926  
Moisture  
Dew Point 25 °F    
Average Humidity 65    
Maximum Humidity 85    
Minimum Humidity 45    
Precipitation  
Precipitation 0.00 in 0.16 in 0.46 in (2004)
Month to date precipitation 0.00 0.16  
Year to date precipitation 40.17 40.23  
Sea Level Pressure  
Sea Level Pressure 30.31 in    
Wind  
Wind Speed 10 mph (North)    
Max Wind Speed 24 mph    
Max Gust Speed 32 mph    
Visibility 10 miles    
Events      
T = Trace of Precipitation, MM = Missing Value Source: NWS Daily Summary

Daily Weather History Graph

Daily Weather History Graph

Search for Another Location

Airport or City:

Trip Planner

Search our weather history database for the weather conditions in past years. The results will help you decide how hot, cold, wet, or windy it might be!

Date:

Astronomy

Nov. 01, 2014 Rise Set
Actual Time 8:14 AM EDT 6:45 PM EDT
Civil Twilight 7:46 AM EDT 7:13 PM EDT
Nautical Twilight 7:14 AM EDT 7:44 PM EDT
Astronomical Twilight 6:43 AM EDT 8:15 PM EDT
Moon 3:36 PM EDT (11/1) 2:11 AM EDT (11/1)
Length of Visible Light 11h 26m
Length of Day
10h 31m
Waxing Gibbous, 67% of the Moon is Illuminated
Nov 1
Waxing Gibbous
Nov 6
Full
Nov 14
Last Quarter
Nov 22
New
Nov 29
First Quarter

Hourly Weather History & Observations

Time (EDT) Temp. Windchill Dew Point Humidity Pressure Visibility Wind Dir Wind Speed Gust Speed Precip Events Conditions
12:27 AM 35.1 °F 25.2 °F 28.0 °F 76% 30.17 in 10.0 mi North 16.1 mph 25.3 mph N/A   Overcast
12:53 AM 35.1 °F 25.2 °F 27.0 °F 72% 30.19 in 10.0 mi North 16.1 mph 33.4 mph N/A   Overcast
1:53 AM 34.0 °F 24.6 °F 25.0 °F 70% 30.20 in 10.0 mi North 13.8 mph 27.6 mph N/A   Overcast
2:53 AM 33.1 °F 21.5 °F 24.1 °F 70% 30.22 in 10.0 mi North 19.6 mph 26.5 mph N/A   Clear
3:53 AM 33.1 °F 24.4 °F 24.1 °F 70% 30.23 in 10.0 mi North 11.5 mph 24.2 mph N/A   Overcast
4:53 AM 33.1 °F 22.2 °F 24.1 °F 70% 30.24 in 10.0 mi North 17.3 mph 25.3 mph N/A   Overcast
5:53 AM 33.1 °F 22.6 °F 23.0 °F 66% 30.26 in 10.0 mi North 16.1 mph 25.3 mph N/A   Overcast
6:53 AM 32.0 °F 23.0 °F 24.1 °F 73% 30.28 in 10.0 mi North 11.5 mph - N/A   Overcast
7:53 AM 30.9 °F 20.2 °F 23.0 °F 72% 30.30 in 10.0 mi North 15.0 mph 23.0 mph N/A   Mostly Cloudy
8:53 AM 30.9 °F 20.2 °F 23.0 °F 72% 30.33 in 10.0 mi North 15.0 mph - N/A   Clear
9:37 AM 32.0 °F 23.6 °F 23.0 °F 69% 30.32 in 10.0 mi North 10.4 mph - N/A   Mostly Cloudy
9:53 AM 33.1 °F 23.9 °F 24.1 °F 70% 30.35 in 10.0 mi North 12.7 mph 21.9 mph N/A   Overcast
10:51 AM 35.6 °F 26.6 °F 24.8 °F 65% 30.34 in 10.0 mi NNE 13.8 mph 23.0 mph N/A   Scattered Clouds
10:53 AM 35.1 °F 25.5 °F 25.0 °F 67% 30.36 in 10.0 mi NNE 15.0 mph - N/A   Partly Cloudy
11:53 AM 37.9 °F 29.6 °F 26.1 °F 62% 30.37 in 10.0 mi North 13.8 mph - N/A   Scattered Clouds
12:53 PM 41.0 °F 33.9 °F 27.0 °F 57% 30.37 in 10.0 mi NNE 12.7 mph 20.7 mph N/A   Partly Cloudy
1:53 PM 42.1 °F 39.2 °F 27.0 °F 55% 30.34 in 10.0 mi Variable 4.6 mph 16.1 mph N/A   Clear
2:53 PM 44.1 °F 40.1 °F 27.0 °F 51% 30.32 in 10.0 mi NNW 6.9 mph - N/A   Clear
3:53 PM 45.0 °F 38.2 °F 27.0 °F 49% 30.32 in 10.0 mi North 15.0 mph 19.6 mph N/A   Clear
4:53 PM 45.0 °F 39.7 °F 25.0 °F 46% 30.33 in 10.0 mi North 10.4 mph 20.7 mph N/A   Clear
5:53 PM 43.0 °F 36.8 °F 23.0 °F 45% 30.35 in 10.0 mi North 11.5 mph - N/A   Clear
6:53 PM 39.0 °F 34.8 °F 21.9 °F 50% 30.36 in 10.0 mi North 5.8 mph - N/A   Clear
7:53 PM 35.1 °F 32.2 °F 23.0 °F 61% 30.38 in 10.0 mi NNW 3.5 mph - N/A   Clear
8:53 PM 30.0 °F - 24.1 °F 79% 30.38 in 10.0 mi Calm Calm - N/A   Clear
9:53 PM 28.9 °F 25.2 °F 24.1 °F 82% 30.39 in 10.0 mi North 3.5 mph - N/A   Clear
10:53 PM 28.9 °F - 23.0 °F 78% 30.40 in 10.0 mi Calm Calm - N/A   Clear
11:53 PM 30.0 °F - 21.9 °F 72% 30.40 in 10.0 mi Calm Calm - N/A   Clear